Regional Weather Roundup
Issued by NWS Charleston, SC

Current Version | Previous Version | Text Only | Print | Product List | Glossary Off
Versions: 1 2 3 4 5 6 7 8 9 10 11 12 13 14 15 16 17 18 19 20 21 22 23 24 25 26 27 28 29 30 31 32 33 34 35 36 37 38 39 40 41 42 43 44 45 46 47 48 49 50

000
ASUS42 KCHS 250527
RWRCHS

REGIONAL WEATHER ROUNDUP
NATIONAL WEATHER SERVICE CHARLESTON SC
100 AM EDT MON MAY 25 2015

NOTE: "FAIR" INDICATES FEW OR NO CLOUDS BELOW 12,000 FEET WITH NO
SIGNIFICANT WEATHER AND/OR OBSTRUCTIONS TO VISIBILITY.

NOT ALL STATIONS ARE QUALITY CONTROLLED BY THE NATIONAL
WEATHER SERVICE. USE DATA WITH CAUTION...ESPECIALLY
DEWPOINT OBSERVATIONS.

SCZ027-030-031-034>040-042>050-250600-
...SOUTHEAST SOUTH CAROLINA...

CITY           SKY/WX    TMP DP  RH WIND       PRES   REMARKS
N CHARLESTON   CLEAR     70  58  65 SE7       30.30F
WATERFRONT PAR   N/A     74  63  68 SE15      30.28S
MOUNT PLEASANT FAIR      72  61  68 E3        30.31S
JOHNS ISLAND   CLEAR     73  61  64 E8        30.30F
PINOPOLIS        N/A    N/A N/A N/A CALM      30.23S
MONCKS CORNER  FAIR      63  59  88 CALM      30.31S
SUMMERVILLE    FAIR      63  61  94 CALM      30.31F
BEAUFORT MCAS  CLEAR     73  65  75 E7        30.29S
BEAUFORT ARPT  MOCLDY    73  64  73 E7        30.28F
HILTON HEAD IS CLEAR     75  66  73 E7        30.28F
WALTERBORO     CLEAR     63  59  88 E3        30.31S
ALLENDALE      FAIR      66  61  82 CALM      30.29F

...SOUTHERN MIDLANDS AND PEE DEE...

CITY           SKY/WX    TMP DP  RH WIND       PRES   REMARKS
GEORGETOWN     NOT AVBL
KINGSTREE      NOT AVBL
ORANGEBURG     CLEAR     65  58  78 CALM      30.31F
BARNWELL       FAIR      66  61  82 CALM      30.31S
AIKEN          FAIR      64  55  72 E3        30.35S
MANNING        FAIR      57  52  82 CALM      30.31F
COLUMBIA       CLEAR     68  57  68 CALM      30.31S
SUMTER         CLEAR     64  56  77 NE3       30.31S
FLORENCE       CLEAR     62  57  83 CALM      30.33F
MYRTLE BEACH   PTCLDY    73  57  56 SE14      30.34F
N MYRTLE BEACH PTCLDY    73  57  57 SE8       30.33S

$$

GAZ063-065-086>088-099>101-113>116-118-119-134>141-150-250600-
...SOUTHEAST GEORGIA...

CITY           SKY/WX    TMP DP  RH WIND       PRES   REMARKS
SAVANNAH ARPT  MOCLDY    74  64  71 E8        30.27F
HUNTER AAF     CLOUDY    75  67  75 E10       30.24F
FORT STEWART   CLOUDY    71  65  81 CALM      30.25S
STATESBORO     CLEAR     69  65  89 E3        30.28F
SYLVANIA       CLEAR     67  64  91 E5        30.29F
CLAXTON        FAIR      68  64  88 E3        30.26F

...CSRA...CENTRAL AND FAR SOUTHEAST GEORGIA...

CITY           SKY/WX    TMP DP  RH WIND       PRES   REMARKS
THOMSON        CLEAR     70  64  81 SE3       30.33F
AUGUSTA-BUSH   CLEAR     65  60  84 CALM      30.30R
AUGUSTA-DANIEL CLEAR     70  60  70 SE5       30.31S
SWAINSBORO     FAIR      72  64  78 E5        30.28F
VIDALIA        CLOUDY    70  64  83 E5        30.26F
EASTMAN        FAIR      70  66  88 E5        30.28F
HAZLEHURST     MOCLDY    72  67  84 CALM      30.25S
ALMA           CLOUDY    69  66  90 CALM      30.24F
WAYCROSS       PTCLDY    71  70  96 SE5       30.24S
JESUP          CLOUDY    73  70  88 E5        30.25F
BAXLEY         CLOUDY    72  68  88 E3        30.24F
BRUNSWICK        N/A     77  68  73 E8        30.26S
SAINT SIMONS   NOT AVBL

$$

SCZ027-028-034-036>038-045-046-048>050-GAZ119-141-250600-
...LAKE AND SUPPLEMENTAL COASTAL OBSERVATIONS...

STATION/POSITION TIME  TEMP    WIND        PRES    WAVE   SWELL
                       AIR SEA DIR/SP/G            HT/PER HT/PER/DIR
                 (UTC) (F)     (DEG/KT/KT) (MB)    (FT/S) (FT/S/D)
UPR LAKE MARION  NOT AVBL
WINYAH BAY       0445   73     120/ 10     1026.0S
LAKE MURRAY      0500   70     120/  5/  8 1026.1S
ACE BASIN NERRS  NOT AVBL
FORT PULASKI     0500   76 78  100/ 13/ 16 1025.4F
SAPELO ISLAND    0500   76     100/  8     1024.0S

$$

ANZ835-935-AMZ111-154-330-350-352-354-370-450-454-472-250600-
...C-MAN AND BUOY OBSERVATIONS...

STATION/POSITION TIME  TEMP    WIND        PRES    WAVE   SWELL
                       AIR SEA DIR/SP/G            HT/PER HT/PER/DIR
                 (UTC) (F)     (DEG/KT/KT) (MB)    (FT/S) (FT/S/D)
BUOY 41004       0450   74 75  110/ 16/ 19 1025.3F   5/ 7   2/ 8
BUOY 41008       0450   76 75  100/ 14/ 17 1024.3F   6/ 8   3/100/ 8
FOLLY BEACH CMAN 0500   74     110/ 16/ 17 1026.1F
CAPERS NEARSHORE 0408   74     120/ 16/ 19 1026.4F
FRIPP NEARSHORE  0400   75     120/ 16/ 19 1024.7S


STATION/POSITION TIME  TEMP    WIND        PRES    WAVE   SWELL
                       AIR SEA DIR/SP/G            HT/PER HT/PER/DIR
                 (UTC) (F)     (DEG/KT/KT) (MB)    (FT/S) (FT/S/D)
5E ST. MARYS GA  0421      78                N/A     5/ 6
FRYING PAN BUOY  0450   74 73  130/ 12/ 14 1027.5F   4/ 7   3/110/ 7
BUOY 41025       0450   74 77  120/  8/ 10 1027.7F   2/ 7   2/ 50/ 7
CAPE LOOKOUT NC  0500   72     130/ 10/ 11 1027.4F
BUOY 41002       0450   73 74  110/ 14/ 17 1026.5F   4/ 6   2/ 90/ 9
BUOY 41010       0420   78 79   80/ 16/ 17 1023.6F
ST AUGUSTINE FL  0500   76 77  110/  9/ 10 1023.9F


$$


USA.gov is the U.S. government's official web portal to all federal, state and local government web resources and services.